| time (UTC) | temp F | wind direction | speed MPH | gust MPH | rain 1hr in | rain 24hr in | rain mn in | humidity % | barometer mb |
| 20260510084559 | 61 | 273 | 7.0 | 15.0 | 0.00 | 0.00 | 0.00 | 56 | 1016.5 |
| 20260510084059 | 61 | 284 | 7.0 | 21.0 | 0.00 | 0.00 | 0.00 | 54 | 1016.6 |
| 20260510083558 | 62 | 342 | 11.0 | 21.0 | 0.00 | 0.00 | 0.00 | 54 | 1016.6 |
| 20260510083059 | 62 | 281 | 9.0 | 17.0 | 0.00 | 0.00 | 0.00 | 55 | 1016.7 |
| 20260510082558 | 61 | 216 | 10.0 | 17.0 | 0.00 | 0.00 | 0.00 | 56 | 1016.8 |
| 20260510082055 | 61 | 302 | 3.0 | 13.0 | 0.00 | 0.00 | 0.00 | 56 | 1016.8 |
| 20260510081554 | 61 | 249 | 9.0 | 17.0 | 0.00 | 0.00 | 0.00 | 55 | 1016.9 |
| 20260510081052 | 60 | 284 | 10.0 | 24.0 | 0.00 | 0.00 | 0.00 | 56 | 1016.9 |
| 20260510080555 | 61 | 307 | 10.0 | 24.0 | 0.00 | 0.00 | 0.00 | 56 | 1017.1 |
| 20260510080055 | 60 | 340 | 7.0 | 20.0 | 0.00 | 0.00 | 0.00 | 56 | 1017.0 |
| 20260510075548 | 61 | 313 | 5.0 | 14.0 | 0.00 | 0.00 | 0.00 | 58 | 1017.1 |
| 20260510075048 | 60 | 279 | 5.0 | 16.0 | 0.00 | 0.00 | 0.00 | 58 | 1017.1 |
| 20260510074549 | 60 | 306 | 12.0 | 16.0 | 0.00 | 0.00 | 0.00 | 56 | 1017.1 |
| 20260510074045 | 60 | 305 | 7.0 | 16.0 | 0.00 | 0.00 | 0.00 | 58 | 1017.1 |
| 20260510073544 | 60 | 209 | 9.0 | 14.0 | 0.00 | 0.00 | 0.00 | 58 | 1017.1 |
| 20260510073047 | 59 | 218 | 7.0 | 15.0 | 0.00 | 0.00 | 0.00 | 58 | 1017.1 |
| 20260510072542 | 59 | 331 | 6.0 | 14.0 | 0.00 | 0.00 | 0.00 | 58 | 1017.0 |
| 20260510072042 | 59 | 309 | 8.0 | 13.0 | 0.00 | 0.00 | 0.00 | 58 | 1017.0 |
| 20260510071539 | 59 | 298 | 5.0 | 12.0 | 0.00 | 0.00 | 0.00 | 59 | 1017.0 |
| 20260510071036 | 59 | 221 | 4.0 | 12.0 | 0.00 | 0.00 | 0.00 | 60 | 1017.1 |
| 20260510070535 | 58 | 293 | 5.0 | 13.0 | 0.00 | 0.00 | 0.00 | 61 | 1017.2 |
| 20260510064531 | 57 | 223 | 5.0 | 12.0 | 0.00 | 0.00 | 0.00 | 65 | 1017.2 |
| 20260510064053 | 56 | 229 | 4.0 | 12.0 | 0.00 | 0.00 | 0.00 | 66 | 1017.2 |
| 20260510063531 | 56 | 257 | 3.0 | 11.0 | 0.00 | 0.00 | 0.00 | 67 | 1017.3 |
| 20260510063026 | 56 | 257 | 6.0 | 11.0 | 0.00 | 0.00 | 0.00 | 68 | 1017.3 |
| 20260510062523 | 55 | 217 | 2.0 | 8.0 | 0.00 | 0.00 | 0.00 | 72 | 1017.3 |
| 20260510062023 | 55 | 218 | 5.0 | 8.0 | 0.00 | 0.00 | 0.00 | 73 | 1017.5 |
| 20260510061521 | 55 | 278 | 0.0 | 6.0 | 0.00 | 0.00 | 0.00 | 74 | 1017.5 |
| 20260510061020 | 55 | 205 | 0.0 | 0.0 | 0.00 | 0.00 | 0.00 | 75 | 1017.6 |
| 20260510060519 | 54 | 284 | 0.0 | 0.0 | 0.00 | 0.00 | 0.00 | 77 | 1017.6 |
| 20260510060017 | 54 | 267 | 0.0 | 0.0 | 0.00 | 0.00 | 0.00 | 77 | 1017.6 |
| 20260510055517 | 54 | 269 | 0.0 | 0.0 | 0.00 | 0.00 | 0.00 | 77 | 1017.6 |
| 20260510055015 | 54 | 202 | 0.0 | 0.0 | 0.00 | 0.00 | 0.00 | 78 | 1017.6 |
| 20260510054514 | 53 | 275 | 0.0 | 0.0 | 0.00 | 0.00 | 0.00 | 81 | 1017.6 |
| 20260510054013 | 52 | 219 | 0.0 | 0.0 | 0.00 | 0.00 | 0.00 | 84 | 1017.6 |
| 20260510053510 | 51 | 219 | 0.0 | 0.0 | 0.00 | 0.00 | 0.00 | 85 | 1017.7 |
| 20260510053009 | 51 | 206 | 0.0 | 0.0 | 0.00 | 0.00 | 0.00 | 88 | 1017.7 |
| 20260510052507 | 50 | 207 | 0.0 | 0.0 | 0.00 | 0.00 | 0.00 | 88 | 1017.7 |
| 20260510052006 | 49 | 206 | 0.0 | 0.0 | 0.00 | 0.00 | 0.00 | 89 | 1017.8 |
| 20260510051505 | 48 | 206 | 0.0 | 0.0 | 0.00 | 0.00 | 0.00 | 90 | 1017.8 |
| 20260510051003 | 48 | 206 | 0.0 | 0.0 | 0.00 | 0.00 | 0.00 | 91 | 1017.8 |
| 20260510050502 | 47 | 206 | 0.0 | 0.0 | 0.00 | 0.00 | 0.00 | 91 | 1017.8 |
| 20260510050101 | 47 | 205 | 0.0 | 0.0 | 0.00 | 0.00 | 0.00 | 91 | 1017.9 |
| 20260510045058 | 46 | 191 | 0.0 | 0.0 | 0.00 | 0.00 | 0.00 | 93 | 1017.9 |
| 20260510044611 | 46 | 191 | 0.0 | 0.0 | 0.00 | 0.00 | 0.00 | 93 | 1017.9 |
| 20260510044100 | 46 | 191 | 0.0 | 0.0 | 0.00 | 0.00 | 0.00 | 94 | 1018.0 |
| 20260510043554 | 45 | 191 | 0.0 | 0.0 | 0.00 | 0.00 | 0.00 | 94 | 1018.1 |
| 20260510043054 | 44 | 191 | 0.0 | 0.0 | 0.00 | 0.00 | 0.00 | 94 | 1018.1 |
| 20260510042552 | 43 | 191 | 0.0 | 0.0 | 0.00 | 0.00 | 0.00 | 95 | 1018.2 |
| 20260510042053 | 42 | 191 | 0.0 | 0.0 | 0.00 | 0.00 | 0.00 | 94 | 1018.2 |
| 20260510041556 | 41 | 283 | 0.0 | 0.0 | 0.00 | 0.00 | 0.00 | 94 | 1018.2 |
| 20260510041048 | 41 | 283 | 0.0 | 0.0 | 0.00 | 0.00 | 0.00 | 94 | 1018.2 |
| 20260510040549 | 40 | 284 | 0.0 | 0.0 | 0.00 | 0.00 | 0.00 | 93 | 1018.2 |
| 20260510040045 | 40 | 283 | 0.0 | 0.0 | 0.00 | 0.00 | 0.00 | 93 | 1018.3 |
| 20260510035544 | 40 | 283 | 0.0 | 0.0 | 0.00 | 0.00 | 0.00 | 93 | 1018.3 |
| 20260510035045 | 39 | 283 | 0.0 | 0.0 | 0.00 | 0.00 | 0.00 | 93 | 1018.3 |
| 20260510034547 | 39 | 283 | 0.0 | 0.0 | 0.00 | 0.00 | 0.00 | 93 | 1018.3 |
| 20260510034044 | 39 | 284 | 0.0 | 0.0 | 0.00 | 0.00 | 0.00 | 93 | 1018.3 |
| 20260510033542 | 39 | 283 | 0.0 | 0.0 | 0.00 | 0.00 | 0.00 | 93 | 1018.2 |
| 20260510033054 | 39 | 283 | 0.0 | 0.0 | 0.00 | 0.00 | 0.00 | 92 | 1018.2 |
| 20260510032543 | 39 | 284 | 0.0 | 0.0 | 0.00 | 0.00 | 0.00 | 92 | 1018.2 |
| 20260510032040 | 39 | 284 | 0.0 | 0.0 | 0.00 | 0.00 | 0.00 | 92 | 1018.3 |
| 20260510031540 | 39 | 283 | 0.0 | 0.0 | 0.00 | 0.00 | 0.00 | 92 | 1018.3 |
| 20260510031038 | 39 | 284 | 0.0 | 0.0 | 0.00 | 0.00 | 0.00 | 92 | 1018.4 |
| 20260510030538 | 39 | 284 | 0.0 | 0.0 | 0.00 | 0.00 | 0.00 | 92 | 1018.4 |
| 20260510030038 | 39 | 283 | 0.0 | 0.0 | 0.00 | 0.00 | 0.00 | 92 | 1018.4 |
| 20260510025538 | 39 | 284 | 0.0 | 0.0 | 0.00 | 0.00 | 0.00 | 92 | 1018.4 |
| 20260510025037 | 39 | 284 | 0.0 | 0.0 | 0.00 | 0.00 | 0.00 | 92 | 1018.5 |
| 20260510024542 | 39 | 283 | 0.0 | 0.0 | 0.00 | 0.00 | 0.00 | 92 | 1018.5 |
| 20260510024036 | 39 | 284 | 0.0 | 0.0 | 0.00 | 0.00 | 0.00 | 92 | 1018.5 |
| 20260510023536 | 39 | 284 | 0.0 | 0.0 | 0.00 | 0.00 | 0.00 | 92 | 1018.5 |
| 20260510023036 | 39 | 284 | 0.0 | 0.0 | 0.00 | 0.00 | 0.00 | 92 | 1018.5 |
| 20260510022536 | 39 | 284 | 0.0 | 0.0 | 0.00 | 0.00 | 0.00 | 91 | 1018.6 |
| 20260510022034 | 39 | 284 | 0.0 | 0.0 | 0.00 | 0.00 | 0.00 | 91 | 1018.6 |
| 20260510021538 | 39 | 283 | 0.0 | 0.0 | 0.00 | 0.00 | 0.00 | 91 | 1018.7 |
| 20260510021033 | 39 | 284 | 0.0 | 0.0 | 0.00 | 0.00 | 0.00 | 91 | 1018.7 |
| 20260510020533 | 40 | 284 | 0.0 | 0.0 | 0.00 | 0.00 | 0.00 | 92 | 1018.7 |
| 20260510020033 | 40 | 284 | 0.0 | 0.0 | 0.00 | 0.00 | 0.00 | 91 | 1018.7 |
| 20260510015532 | 40 | 284 | 0.0 | 0.0 | 0.00 | 0.00 | 0.00 | 91 | 1018.7 |
| 20260510015132 | 40 | 284 | 0.0 | 0.0 | 0.00 | 0.00 | 0.00 | 91 | 1018.7 |
| 20260510014535 | 40 | 283 | 0.0 | 0.0 | 0.00 | 0.00 | 0.00 | 91 | 1018.7 |
| 20260510014032 | 40 | 284 | 0.0 | 0.0 | 0.00 | 0.00 | 0.00 | 91 | 1018.6 |
| 20260510013532 | 40 | 284 | 0.0 | 0.0 | 0.00 | 0.00 | 0.00 | 91 | 1018.6 |
| 20260510013038 | 40 | 284 | 0.0 | 0.0 | 0.00 | 0.00 | 0.00 | 91 | 1018.5 |
| 20260510012530 | 40 | 284 | 0.0 | 0.0 | 0.00 | 0.00 | 0.00 | 91 | 1018.5 |
| 20260510012029 | 40 | 284 | 0.0 | 0.0 | 0.00 | 0.00 | 0.00 | 91 | 1018.5 |
| 20260510011529 | 40 | 284 | 0.0 | 0.0 | 0.00 | 0.00 | 0.00 | 91 | 1018.5 |
| 20260510011030 | 40 | 283 | 0.0 | 0.0 | 0.00 | 0.00 | 0.00 | 91 | 1018.5 |
| 20260510010528 | 40 | 284 | 0.0 | 0.0 | 0.00 | 0.00 | 0.00 | 90 | 1018.6 |
| 20260510010028 | 41 | 284 | 0.0 | 0.0 | 0.00 | 0.00 | 0.00 | 90 | 1018.6 |
| 20260510005528 | 41 | 284 | 0.0 | 0.0 | 0.00 | 0.00 | 0.00 | 90 | 1018.6 |
| 20260510005026 | 41 | 284 | 0.0 | 0.0 | 0.00 | 0.00 | 0.00 | 90 | 1018.6 |
| 20260510004526 | 41 | 283 | 0.0 | 0.0 | 0.00 | 0.00 | 0.00 | 90 | 1018.6 |
| 20260510004030 | 41 | 284 | 0.0 | 0.0 | 0.00 | 0.00 | 0.00 | 90 | 1018.7 |
| 20260510003525 | 41 | 284 | 0.0 | 0.0 | 0.00 | 0.00 | 0.00 | 90 | 1018.7 |
| 20260510003025 | 41 | 284 | 0.0 | 0.0 | 0.00 | 0.00 | 0.00 | 90 | 1018.6 |
| 20260510002524 | 41 | 284 | 0.0 | 0.0 | 0.00 | 0.00 | 0.00 | 90 | 1018.6 |
| 20260510002023 | 42 | 284 | 0.0 | 0.0 | 0.00 | 0.00 | 0.00 | 90 | 1018.7 |
| 20260510001534 | 42 | 284 | 0.0 | 0.0 | 0.00 | 0.00 | 0.00 | 90 | 1018.8 |
| 20260510001021 | 42 | 284 | 0.0 | 0.0 | 0.00 | 0.00 | 0.00 | 89 | 1018.9 |
| 20260510000520 | 42 | 284 | 0.0 | 0.0 | 0.00 | 0.00 | 0.00 | 89 | 1018.9 |
| 20260510000020 | 42 | 283 | 0.0 | 0.0 | 0.00 | 0.00 | 0.00 | 89 | 1019.0 |
| 20260509235519 | 42 | 284 | 0.0 | 0.0 | 0.00 | 0.00 | 0.00 | 89 | 1019.0 |
| 20260509235025 | 43 | 284 | 0.0 | 0.0 | 0.00 | 0.00 | 0.00 | 89 | 1019.0 |
| 20260509234620 | 43 | 284 | 0.0 | 0.0 | 0.00 | 0.00 | 0.00 | 89 | 1019.0 |
| 20260509234020 | 43 | 284 | 0.0 | 0.0 | 0.00 | 0.00 | 0.00 | 89 | 1019.0 |
| 20260509233516 | 43 | 284 | 0.0 | 0.0 | 0.00 | 0.00 | 0.00 | 89 | 1019.0 |
| 20260509233015 | 43 | 284 | 0.0 | 0.0 | 0.00 | 0.00 | 0.00 | 89 | 1018.9 |
| 20260509232515 | 43 | 284 | 0.0 | 0.0 | 0.00 | 0.00 | 0.00 | 88 | 1019.0 |
| 20260509232014 | 43 | 284 | 0.0 | 0.0 | 0.00 | 0.00 | 0.00 | 88 | 1019.1 |
| 20260509231514 | 44 | 284 | 0.0 | 0.0 | 0.00 | 0.00 | 0.00 | 88 | 1019.1 |
| 20260509231013 | 44 | 284 | 0.0 | 0.0 | 0.00 | 0.00 | 0.00 | 88 | 1019.1 |
| 20260509230512 | 44 | 284 | 0.0 | 0.0 | 0.00 | 0.00 | 0.00 | 87 | 1019.1 |
| 20260509230012 | 44 | 284 | 0.0 | 0.0 | 0.00 | 0.00 | 0.00 | 88 | 1019.2 |
| 20260509225512 | 44 | 284 | 0.0 | 0.0 | 0.00 | 0.00 | 0.00 | 87 | 1019.2 |
| 20260509225014 | 44 | 284 | 0.0 | 0.0 | 0.00 | 0.00 | 0.00 | 86 | 1019.2 |
| 20260509224510 | 44 | 284 | 0.0 | 0.0 | 0.00 | 0.00 | 0.00 | 87 | 1019.2 |
| 20260509224011 | 45 | 284 | 0.0 | 0.0 | 0.00 | 0.00 | 0.00 | 86 | 1019.3 |
| 20260509223509 | 45 | 284 | 0.0 | 0.0 | 0.00 | 0.00 | 0.00 | 86 | 1019.3 |
| 20260509223008 | 45 | 284 | 0.0 | 0.0 | 0.00 | 0.00 | 0.00 | 86 | 1019.2 |
| 20260509222507 | 45 | 284 | 0.0 | 0.0 | 0.00 | 0.00 | 0.00 | 85 | 1019.3 |
| 20260509222006 | 45 | 284 | 0.0 | 0.0 | 0.00 | 0.00 | 0.00 | 85 | 1019.3 |
| 20260509221506 | 45 | 284 | 0.0 | 0.0 | 0.00 | 0.00 | 0.00 | 85 | 1019.3 |
| 20260509221006 | 45 | 284 | 0.0 | 0.0 | 0.00 | 0.00 | 0.00 | 85 | 1019.4 |
| 20260509220606 | 46 | 284 | 0.0 | 0.0 | 0.00 | 0.00 | 0.00 | 85 | 1019.3 |
| 20260509220003 | 46 | 284 | 0.0 | 0.0 | 0.00 | 0.00 | 0.00 | 84 | 1019.4 |
| 20260509215503 | 46 | 284 | 0.0 | 0.0 | 0.00 | 0.00 | 0.00 | 84 | 1019.3 |
| 20260509215002 | 46 | 283 | 0.0 | 0.0 | 0.00 | 0.00 | 0.00 | 84 | 1019.3 |
| 20260509214502 | 46 | 284 | 0.0 | 0.0 | 0.00 | 0.00 | 0.00 | 84 | 1019.4 |
| 20260509213502 | 47 | 284 | 0.0 | 0.0 | 0.00 | 0.00 | 0.00 | 83 | 1019.3 |
| 20260509213107 | 47 | 284 | 0.0 | 0.0 | 0.00 | 0.00 | 0.00 | 83 | 1019.3 |
| 20260509212559 | 47 | 284 | 0.0 | 0.0 | 0.00 | 0.00 | 0.00 | 82 | 1019.3 |
| 20260509212059 | 47 | 284 | 0.0 | 0.0 | 0.00 | 0.00 | 0.00 | 82 | 1019.4 |
| 20260509211606 | 47 | 284 | 0.0 | 0.0 | 0.00 | 0.00 | 0.00 | 82 | 1019.4 |
| 20260509211059 | 48 | 284 | 0.0 | 0.0 | 0.00 | 0.00 | 0.00 | 82 | 1019.4 |
| 20260509210559 | 48 | 283 | 0.0 | 0.0 | 0.00 | 0.00 | 0.00 | 82 | 1019.4 |
| 20260509205559 | 48 | 284 | 0.0 | 0.0 | 0.00 | 0.00 | 0.00 | 82 | 1019.4 |
| 20260509205104 | 48 | 284 | 0.0 | 0.0 | 0.00 | 0.00 | 0.00 | 82 | 1019.4 |
| 20260509204604 | 48 | 284 | 0.0 | 0.0 | 0.00 | 0.00 | 0.00 | 81 | 1019.5 |
| 20260509204100 | 48 | 284 | 0.0 | 0.0 | 0.00 | 0.00 | 0.00 | 81 | 1019.4 |
| 20260509203558 | 48 | 284 | 0.0 | 0.0 | 0.00 | 0.00 | 0.00 | 80 | 1019.5 |
| 20260509203101 | 48 | 284 | 0.0 | 0.0 | 0.00 | 0.00 | 0.00 | 80 | 1019.5 |
| 20260509202557 | 48 | 284 | 0.0 | 0.0 | 0.00 | 0.00 | 0.00 | 80 | 1019.4 |
| 20260509202058 | 48 | 284 | 0.0 | 0.0 | 0.00 | 0.00 | 0.00 | 80 | 1019.4 |
| 20260509201559 | 48 | 284 | 0.0 | 0.0 | 0.00 | 0.00 | 0.00 | 80 | 1019.4 |
| 20260509201056 | 49 | 284 | 0.0 | 0.0 | 0.00 | 0.00 | 0.00 | 80 | 1019.4 |
| 20260509200556 | 49 | 284 | 0.0 | 0.0 | 0.00 | 0.00 | 0.00 | 79 | 1019.3 |
| 20260509200057 | 49 | 284 | 0.0 | 0.0 | 0.00 | 0.00 | 0.00 | 79 | 1019.3 |
| 20260509195557 | 49 | 284 | 0.0 | 0.0 | 0.00 | 0.00 | 0.00 | 78 | 1019.3 |
| 20260509195056 | 49 | 284 | 0.0 | 0.0 | 0.00 | 0.00 | 0.00 | 78 | 1019.3 |
| 20260509194558 | 49 | 284 | 0.0 | 0.0 | 0.00 | 0.00 | 0.00 | 78 | 1019.3 |
| 20260509194058 | 50 | 284 | 0.0 | 0.0 | 0.00 | 0.00 | 0.00 | 77 | 1019.3 |
| 20260509193657 | 50 | 284 | 0.0 | 0.0 | 0.00 | 0.00 | 0.00 | 77 | 1019.3 |
| 20260509193057 | 50 | 284 | 0.0 | 0.0 | 0.00 | 0.00 | 0.00 | 76 | 1019.3 |
| 20260509192554 | 50 | 284 | 0.0 | 0.0 | 0.00 | 0.00 | 0.00 | 75 | 1019.4 |
| 20260509192054 | 51 | 284 | 0.0 | 0.0 | 0.00 | 0.00 | 0.00 | 74 | 1019.3 |
| 20260509191603 | 51 | 284 | 0.0 | 0.0 | 0.00 | 0.00 | 0.00 | 73 | 1019.3 |
| 20260509191058 | 52 | 284 | 0.0 | 0.0 | 0.00 | 0.00 | 0.00 | 72 | 1019.3 |
| 20260509190553 | 52 | 284 | 0.0 | 0.0 | 0.00 | 0.00 | 0.00 | 71 | 1019.2 |
| 20260509190059 | 53 | 284 | 0.0 | 0.0 | 0.00 | 0.00 | 0.00 | 70 | 1019.2 |
| 20260509185554 | 54 | 284 | 0.0 | 0.0 | 0.00 | 0.00 | 0.00 | 68 | 1019.2 |
| 20260509185053 | 54 | 284 | 0.0 | 0.0 | 0.00 | 0.00 | 0.00 | 67 | 1019.1 |
| 20260509184553 | 55 | 284 | 0.0 | 0.0 | 0.00 | 0.00 | 0.00 | 66 | 1019.1 |
| 20260509184053 | 55 | 284 | 0.0 | 0.0 | 0.00 | 0.00 | 0.00 | 65 | 1019.1 |
| 20260509183553 | 56 | 284 | 0.0 | 0.0 | 0.00 | 0.00 | 0.00 | 63 | 1019.0 |
| 20260509183053 | 56 | 284 | 0.0 | 0.0 | 0.00 | 0.00 | 0.00 | 63 | 1019.0 |
| 20260509181048 | 58 | 284 | 0.0 | 0.0 | 0.00 | 0.00 | 0.00 | 59 | 1019.0 |
| 20260509181023 | 58 | 284 | 0.0 | 0.0 | 0.00 | 0.00 | 0.00 | 58 | 1019.0 |
| 20260509180047 | 59 | 284 | 0.0 | 0.0 | 0.00 | 0.00 | 0.00 | 56 | 1019.0 |
| 20260509175547 | 60 | 284 | 0.0 | 0.0 | 0.00 | 0.00 | 0.00 | 56 | 1018.9 |
| 20260509173543 | 60 | 282 | 2.0 | 9.0 | 0.00 | 0.00 | 0.00 | 54 | 1018.9 |
| 20260509172542 | 61 | 302 | 1.0 | 6.0 | 0.00 | 0.00 | 0.00 | 54 | 1018.8 |
| 20260509172042 | 60 | 310 | 0.0 | 6.0 | 0.00 | 0.00 | 0.00 | 54 | 1018.8 |
| 20260509171550 | 60 | 311 | 2.0 | 8.0 | 0.00 | 0.00 | 0.00 | 53 | 1018.9 |
| 20260509171041 | 60 | 312 | 0.0 | 8.0 | 0.00 | 0.00 | 0.00 | 54 | 1018.8 |
| 20260509170542 | 61 | 294 | 4.0 | 10.0 | 0.00 | 0.00 | 0.00 | 52 | 1018.8 |
| 20260509164537 | 61 | 315 | 6.0 | 13.0 | 0.00 | 0.00 | 0.00 | 53 | 1018.8 |
| 20260509162533 | 61 | 350 | 0.0 | 11.0 | 0.00 | 0.00 | 0.00 | 52 | 1018.9 |
| 20260509162131 | 62 | 297 | 5.0 | 15.0 | 0.00 | 0.00 | 0.00 | 51 | 1018.9 |
| 20260509154526 | 62 | 339 | 8.0 | 14.0 | 0.00 | 0.00 | 0.00 | 51 | 1019.1 |
| 20260509154022 | 62 | 65 | 0.0 | 5.0 | 0.00 | 0.00 | 0.00 | 52 | 1019.2 |
| 20260509153548 | 62 | 34 | 2.0 | 9.0 | 0.00 | 0.00 | 0.00 | 52 | 1019.2 |
| 20260509153121 | 61 | 360 | 4.0 | 11.0 | 0.00 | 0.00 | 0.00 | 52 | 1019.2 |
| 20260509152020 | 60 | 348 | 2.0 | 12.0 | 0.00 | 0.00 | 0.00 | 54 | 1019.3 |
| 20260509151520 | 60 | 344 | 5.0 | 12.0 | 0.00 | 0.00 | 0.00 | 54 | 1019.2 |
| 20260509151019 | 60 | 336 | 0.0 | 0.0 | 0.00 | 0.00 | 0.00 | 53 | 1019.3 |
| 20260509150519 | 61 | 336 | 0.0 | 0.0 | 0.00 | 0.00 | 0.00 | 52 | 1019.4 |
| 20260509144509 | 63 | 355 | 8.0 | 15.0 | 0.00 | 0.00 | 0.00 | 52 | 1019.3 |
| 20260509144005 | 61 | 250 | 0.0 | 7.0 | 0.00 | 0.00 | 0.00 | 51 | 1019.4 |
| 20260509143502 | 61 | 73 | 2.0 | 11.0 | 0.00 | 0.00 | 0.00 | 52 | 1019.4 |
| 20260509143005 | 62 | 133 | 3.0 | 17.0 | 0.00 | 0.00 | 0.00 | 51 | 1019.4 |
| 20260509135048 | 60 | 334 | 3.0 | 11.0 | 0.00 | 0.00 | 0.00 | 54 | 1019.6 |
| 20260509134552 | 60 | 329 | 5.0 | 11.0 | 0.00 | 0.00 | 0.00 | 54 | 1019.5 |
| 20260509132542 | 60 | 32 | 5.0 | 13.0 | 0.00 | 0.00 | 0.00 | 55 | 1019.6 |
| 20260509132041 | 60 | 13 | 4.0 | 17.0 | 0.00 | 0.00 | 0.00 | 56 | 1019.7 |
| 20260509130539 | 59 | 77 | 3.0 | 15.0 | 0.00 | 0.00 | 0.00 | 56 | 1019.8 |
| 20260509130040 | 59 | 116 | 5.0 | 15.0 | 0.00 | 0.00 | 0.00 | 58 | 1019.8 |
| 20260509125539 | 58 | 117 | 5.0 | 18.0 | 0.00 | 0.00 | 0.00 | 57 | 1019.8 |
| 20260509122533 | 58 | 34 | 10.0 | 18.0 | 0.00 | 0.00 | 0.00 | 59 | 1020.2 |
| 20260509122033 | 57 | 40 | 7.0 | 20.0 | 0.00 | 0.00 | 0.00 | 60 | 1020.1 |
| 20260509121548 | 57 | 37 | 9.0 | 20.0 | 0.00 | 0.00 | 0.00 | 61 | 1020.2 |
| 20260509121034 | 57 | 145 | 5.0 | 17.0 | 0.00 | 0.00 | 0.00 | 62 | 1020.3 |
| 20260509120536 | 57 | 349 | 8.0 | 17.0 | 0.00 | 0.00 | 0.00 | 64 | 1020.3 |
| 20260509120036 | 56 | 57 | 6.0 | 17.0 | 0.00 | 0.00 | 0.00 | 63 | 1020.3 |
| 20260509115533 | 57 | 69 | 4.0 | 20.0 | 0.00 | 0.00 | 0.00 | 63 | 1020.3 |
| 20260509115033 | 57 | 61 | 11.0 | 20.0 | 0.00 | 0.00 | 0.00 | 61 | 1020.4 |
| 20260509114534 | 58 | 42 | 7.0 | 16.0 | 0.00 | 0.00 | 0.00 | 59 | 1020.3 |
| 20260509114133 | 59 | 51 | 5.0 | 17.0 | 0.00 | 0.00 | 0.00 | 59 | 1020.2 |
| 20260509113534 | 58 | 34 | 10.0 | 17.0 | 0.00 | 0.00 | 0.00 | 60 | 1020.3 |
| 20260509113031 | 58 | 40 | 1.0 | 23.0 | 0.00 | 0.00 | 0.00 | 60 | 1020.2 |
| 20260509112534 | 58 | 313 | 4.0 | 23.0 | 0.00 | 0.00 | 0.00 | 60 | 1020.3 |
| 20260509112030 | 59 | 80 | 2.0 | 11.0 | 0.00 | 0.00 | 0.00 | 63 | 1020.4 |
| 20260509111529 | 58 | 144 | 4.0 | 11.0 | 0.00 | 0.00 | 0.00 | 66 | 1020.4 |
| 20260509111028 | 59 | 118 | 4.0 | 11.0 | 0.00 | 0.00 | 0.00 | 66 | 1020.4 |
| 20260509110526 | 56 | 329 | 4.0 | 9.0 | 0.00 | 0.00 | 0.00 | 68 | 1020.5 |
| 20260509110028 | 54 | 148 | 0.0 | 13.0 | 0.00 | 0.00 | 0.00 | 72 | 1020.5 |
| 20260509105525 | 55 | 123 | 4.0 | 13.0 | 0.00 | 0.00 | 0.00 | 72 | 1020.6 |
| 20260509105023 | 55 | 49 | 1.0 | 8.0 | 0.00 | 0.00 | 0.00 | 74 | 1020.6 |
| 20260509104522 | 53 | 39 | 2.0 | 6.0 | 0.00 | 0.00 | 0.00 | 78 | 1020.7 |
| 20260509104024 | 52 | 44 | 0.0 | 14.0 | 0.00 | 0.00 | 0.00 | 78 | 1020.7 |
| 20260509103521 | 52 | 5 | 1.0 | 14.0 | 0.00 | 0.00 | 0.00 | 78 | 1020.7 |
| 20260509103021 | 52 | 67 | 2.0 | 12.0 | 0.00 | 0.00 | 0.00 | 79 | 1020.6 |
| 20260509102521 | 52 | 38 | 4.0 | 12.0 | 0.00 | 0.00 | 0.00 | 80 | 1020.7 |
| 20260509102020 | 51 | 56 | 2.0 | 19.0 | 0.00 | 0.00 | 0.00 | 81 | 1020.6 |
| 20260509101523 | 51 | 9 | 3.0 | 13.0 | 0.00 | 0.00 | 0.00 | 80 | 1020.7 |
| 20260509101021 | 51 | 42 | 2.0 | 13.0 | 0.00 | 0.00 | 0.00 | 81 | 1020.7 |
| 20260509100522 | 51 | 40 | 4.0 | 13.0 | 0.00 | 0.00 | 0.00 | 81 | 1020.7 |
| 20260509100024 | 51 | 44 | 5.0 | 15.0 | 0.00 | 0.00 | 0.00 | 81 | 1020.7 |
| 20260509095519 | 51 | 9 | 1.0 | 17.0 | 0.00 | 0.00 | 0.00 | 81 | 1020.7 |
| 20260509095019 | 51 | 30 | 6.0 | 17.0 | 0.00 | 0.00 | 0.00 | 80 | 1020.7 |
| 20260509094519 | 51 | 82 | 6.0 | 17.0 | 0.00 | 0.00 | 0.00 | 80 | 1020.6 |
| 20260509094017 | 52 | 5 | 6.0 | 16.0 | 0.00 | 0.00 | 0.00 | 81 | 1020.6 |
| 20260509093618 | 52 | 24 | 5.0 | 14.0 | 0.00 | 0.00 | 0.00 | 81 | 1020.5 |
| 20260509093018 | 52 | 25 | 4.0 | 14.0 | 0.00 | 0.00 | 0.00 | 81 | 1020.5 |
| 20260509092516 | 52 | 337 | 5.0 | 18.0 | 0.00 | 0.00 | 0.00 | 80 | 1020.4 |
| 20260509092016 | 52 | 56 | 8.0 | 18.0 | 0.00 | 0.00 | 0.00 | 81 | 1020.4 |
| 20260509091515 | 52 | 360 | 3.0 | 15.0 | 0.00 | 0.00 | 0.00 | 83 | 1020.4 |
| 20260509091014 | 51 | 355 | 4.0 | 15.0 | 0.00 | 0.00 | 0.00 | 84 | 1020.3 |
| 20260509090513 | 50 | 360 | 5.0 | 15.0 | 0.00 | 0.00 | 0.00 | 85 | 1020.4 |
| 20260509090013 | 50 | 5 | 5.0 | 18.0 | 0.00 | 0.00 | 0.00 | 85 | 1020.4 |
| 20260509085513 | 50 | 355 | 10.0 | 19.0 | 0.00 | 0.00 | 0.00 | 84 | 1020.3 |
| 20260509085011 | 50 | 5 | 12.0 | 19.0 | 0.00 | 0.00 | 0.00 | 85 | 1020.4 |